Date String (YYYY-MM-DD hh:mm:ss) UTC,Instrument flags,Ambient pressure (hPa),Sample flow (lpm),Bypass flow (lpm),Sample temperature (°C),Ambient temperature (°C),ASC tube jacket temperature (°C),LED temperature (°C),Box temperature (°C),Sample RH (%),Span deviation,Mass concentration (μg/m³),Mass concentration (μg/m³),Mass concentration (μg/m³)
DateTimeUTC,F1_M11,P_M11,Q1_M11,Q2_M11,T1_M11,T2_M11,T3_M11,T4_M11,T5_M11,U1_M11,ZSPAN_M11,X2_M11,X0_M11,X1_M11
2021-12-30 01:00:00,,0814.9,5.00,0.00,22.3,21.6,00.0,31.3,23.9,06.8,0000.0,0004.68,0015.87,0002.76
2021-12-30 01:01:00,,0815.0,5.00,0.00,22.3,22.1,00.0,31.3,24.1,06.8,0000.0,0004.76,0016.38,0002.79
2021-12-30 01:02:00,,0815.0,5.00,0.00,22.5,22.9,00.0,31.4,24.4,06.8,0000.0,0004.79,0016.60,0002.81
2021-12-30 01:03:00,,0815.2,5.00,0.00,22.6,23.1,00.0,31.4,24.5,06.7,0000.0,0004.78,0017.08,0002.82
2021-12-30 01:04:00,,0815.2,5.00,0.00,22.6,22.9,00.0,31.4,24.5,06.7,0000.0,0004.75,0016.95,0002.84
2021-12-30 01:05:00,,0815.1,4.99,0.00,22.6,22.7,00.0,31.5,24.4,06.7,0000.0,0004.68,0017.07,0002.86
2021-12-30 01:06:00,,0815.2,5.01,0.00,22.6,22.6,00.0,31.5,24.3,06.7,0000.0,0004.65,0017.58,0002.88
2021-12-30 01:07:00,,0815.2,5.00,0.00,22.6,22.4,00.0,31.5,24.3,06.7,0000.0,0004.69,0017.76,0002.90
2021-12-30 01:08:00,,0815.2,4.99,0.00,22.6,22.3,00.0,31.5,24.3,06.7,0000.0,0004.76,0018.83,0002.91
2021-12-30 01:09:00,,0815.2,5.01,0.00,22.6,22.2,00.0,31.5,24.2,06.7,0000.0,0004.80,0019.43,0002.92
2021-12-30 01:10:00,,0815.2,4.98,0.00,22.6,22.1,00.0,31.5,24.2,06.7,0000.0,0004.78,0019.86,0002.90
2021-12-30 01:11:00,,0815.1,5.01,0.00,22.5,22.0,00.0,31.5,24.1,06.7,0000.0,0004.80,0019.93,0002.90
2021-12-30 01:12:00,,0815.2,5.01,0.00,22.5,21.9,00.0,31.5,24.1,06.7,0000.0,0004.74,0019.32,0002.89
2021-12-30 01:13:00,,0815.2,4.99,0.00,22.5,21.9,00.0,31.5,24.1,06.7,0000.0,0004.71,0019.65,0002.87
2021-12-30 01:14:00,,0815.2,5.01,0.00,22.4,21.8,00.0,31.5,24.0,06.7,0000.0,0004.70,0020.44,0002.86
2021-12-30 01:15:00,,0815.1,4.99,0.00,22.4,21.8,00.0,31.5,24.0,06.7,0000.0,0004.69,0020.47,0002.85
2021-12-30 01:16:00,,0815.4,5.00,0.00,22.4,21.7,00.0,31.5,24.0,06.8,0000.0,0004.68,0021.41,0002.85
2021-12-30 01:17:00,,0815.3,5.00,0.00,22.4,21.7,00.0,31.5,23.9,06.8,0000.0,0004.77,0021.35,0002.89
2021-12-30 01:18:00,,0815.2,5.01,0.00,22.3,21.6,00.0,31.4,23.9,06.8,0000.0,0004.82,0021.23,0002.90
2021-12-30 01:19:00,,0815.4,5.00,0.00,22.3,21.5,00.0,31.4,23.9,06.8,0000.0,0004.82,0021.62,0002.93
2021-12-30 01:20:00,,0815.2,5.00,0.00,22.3,21.4,00.0,31.4,23.9,06.8,0000.0,0004.78,0020.76,0002.94
2021-12-30 01:21:00,,0815.2,5.00,0.00,22.2,21.3,00.0,31.4,23.9,06.8,0000.0,0004.74,0019.90,0002.93
2021-12-30 01:22:00,,0815.2,5.00,0.00,22.2,21.3,00.0,31.4,23.9,06.8,0000.0,0004.78,0019.77,0002.94
2021-12-30 01:23:00,,0815.3,5.00,0.00,22.2,21.4,00.0,31.3,23.9,06.8,0000.0,0004.81,0020.91,0002.97
2021-12-30 01:24:00,,0815.2,5.00,0.00,22.2,21.3,00.0,31.3,23.8,06.8,0000.0,0004.89,0021.20,0003.01
2021-12-30 01:25:00,,0815.2,4.99,0.00,22.2,21.3,00.0,31.3,23.8,06.9,0000.0,0005.00,0020.21,0003.04
2021-12-30 01:26:00,,0815.4,5.00,0.00,22.2,21.2,00.0,31.3,23.8,06.9,0000.0,0005.07,0020.89,0003.07
2021-12-30 01:27:00,,0815.5,5.00,0.00,22.2,21.5,00.0,31.3,23.8,06.9,0000.0,0005.07,0020.08,0003.06
2021-12-30 01:28:00,,0815.1,5.01,0.00,22.3,22.2,00.0,31.3,24.0,06.8,0000.0,0005.06,0020.01,0003.04
2021-12-30 01:29:00,,0815.4,5.01,0.00,22.4,22.9,00.0,31.3,24.3,06.7,0000.0,0005.00,0020.24,0003.00
2021-12-30 01:30:00,,0815.1,5.00,0.00,22.5,22.9,00.0,31.4,24.4,06.6,0000.0,0004.91,0019.19,0002.95
2021-12-30 01:31:00,,0815.1,4.99,0.00,22.5,22.6,00.0,31.4,24.4,06.6,0000.0,0004.89,0018.99,0002.90
2021-12-30 01:32:00,,0815.6,5.01,0.00,22.5,22.4,00.0,31.4,24.3,06.6,0000.0,0004.87,0018.80,0002.88
2021-12-30 01:33:00,,0815.1,5.00,0.00,22.5,22.3,00.0,31.4,24.3,06.7,0000.0,0004.80,0018.34,0002.85
2021-12-30 01:34:00,,0815.3,4.99,0.00,22.5,22.2,00.0,31.4,24.2,06.7,0000.0,0004.76,0017.74,0002.84
2021-12-30 01:35:00,,0815.3,5.01,0.00,22.5,22.1,00.0,31.4,24.2,06.7,0000.0,0004.72,0018.03,0002.80
2021-12-30 01:36:00,,0815.4,5.00,0.00,22.5,22.0,00.0,31.4,24.2,06.7,0000.0,0004.60,0017.94,0002.75
2021-12-30 01:37:00,,0815.3,5.00,0.00,22.5,21.9,00.0,31.4,24.2,06.6,0000.0,0004.55,0017.59,0002.71
2021-12-30 01:38:00,,0815.3,5.00,0.00,22.5,21.9,00.0,31.4,24.2,06.6,0000.0,0004.58,0018.25,0002.67
2021-12-30 01:39:00,,0815.3,5.01,0.00,22.5,21.8,00.0,31.4,24.2,06.6,0000.0,0004.50,0019.92,0002.62
2021-12-30 01:40:00,,0815.3,5.00,0.00,22.4,21.8,00.0,31.4,24.2,06.6,0000.0,0004.55,0019.78,0002.63
2021-12-30 01:41:00,,0815.3,4.99,0.00,22.4,21.8,00.0,31.4,24.2,06.6,0000.0,0004.64,0021.25,0002.64
2021-12-30 01:42:00,,0815.3,5.02,0.00,22.4,21.8,00.0,31.4,24.1,06.6,0000.0,0004.65,0021.92,0002.65
2021-12-30 01:43:00,,0815.2,4.98,0.00,22.4,21.7,00.0,31.4,24.1,06.6,0000.0,0004.71,0022.21,0002.68
2021-12-30 01:44:00,,0815.3,5.00,0.00,22.4,21.7,00.0,31.4,24.1,06.6,0000.0,0004.75,0022.20,0002.69
2021-12-30 01:45:00,,0815.3,5.01,0.00,22.4,21.7,00.0,31.4,24.1,06.6,0000.0,0004.79,0021.14,0002.67
2021-12-30 01:46:00,,0815.3,4.99,0.00,22.4,21.7,00.0,31.4,24.1,06.6,0000.0,0004.71,0019.84,0002.65
2021-12-30 01:47:00,,0815.4,5.00,0.00,22.4,21.7,00.0,31.4,24.1,06.6,0000.0,0004.71,0019.70,0002.65
2021-12-30 01:48:00,,0815.4,5.00,0.00,22.4,21.6,00.0,31.4,24.1,06.6,0000.0,0004.70,0019.10,0002.67
2021-12-30 01:49:00,,0815.4,5.00,0.00,22.4,21.6,00.0,31.4,24.0,06.6,0000.0,0004.64,0019.39,0002.67
2021-12-30 01:50:00,,0815.3,4.99,0.00,22.4,21.6,00.0,31.4,24.0,06.6,0000.0,0004.65,0018.02,0002.70
2021-12-30 01:51:00,,0815.4,5.01,0.00,22.4,21.6,00.0,31.4,24.0,06.7,0000.0,0004.61,0018.64,0002.71
2021-12-30 01:52:00,,0815.2,5.01,0.00,22.3,21.6,00.0,31.4,24.0,06.7,0000.0,0004.52,0018.01,0002.71
2021-12-30 01:53:00,,0815.4,4.98,0.00,22.3,21.6,00.0,31.3,24.0,06.7,0000.0,0004.50,0018.12,0002.71
2021-12-30 01:54:00,,0815.3,5.00,0.00,22.3,21.6,00.0,31.3,24.0,06.7,0000.0,0004.49,0018.08,0002.71
2021-12-30 01:55:00,,0815.1,5.01,0.00,22.3,21.6,00.0,31.3,24.0,06.7,0000.0,0004.53,0018.40,0002.71
2021-12-30 01:56:00,,0815.2,5.00,0.00,22.3,21.5,00.0,31.3,23.9,06.7,0000.0,0004.56,0019.74,0002.72
2021-12-30 01:57:00,,0815.1,5.00,0.00,22.3,21.5,00.0,31.3,23.9,06.7,0000.0,0004.61,0019.83,0002.73
2021-12-30 01:58:00,,0815.2,4.99,0.00,22.3,21.7,00.0,31.3,24.0,06.6,0000.0,0004.68,0020.18,0002.72
2021-12-30 01:59:00,,0815.4,5.01,0.00,22.4,22.3,00.0,31.4,24.2,06.6,0000.0,0004.68,0020.09,0002.71
